Year,Month,Day,Hour,Minute,Value (Times are PST for temperature in C)
2010,08,15,00,00,20.10
2010,08,15,00,05,20.00
2010,08,15,00,06,20.00
2010,08,15,00,07,20.00
2010,08,15,00,08,20.00
2010,08,15,00,09,20.00
2010,08,15,00,10,19.90
2010,08,15,00,11,19.90
2010,08,15,00,12,19.90
2010,08,15,00,13,19.90
2010,08,15,00,14,19.90
2010,08,15,00,15,19.90
2010,08,15,00,16,19.90
2010,08,15,00,17,19.90
2010,08,15,00,18,20.00
2010,08,15,00,19,20.00
2010,08,15,00,20,20.10
2010,08,15,00,21,20.10
2010,08,15,00,22,20.10
2010,08,15,00,23,20.10
2010,08,15,00,24,20.10
2010,08,15,00,25,20.10
2010,08,15,00,26,20.10
2010,08,15,00,27,20.10
2010,08,15,00,28,20.10
2010,08,15,00,29,20.20
2010,08,15,00,30,20.20
2010,08,15,00,31,20.30
2010,08,15,00,32,20.30
2010,08,15,00,33,20.40
2010,08,15,00,34,20.50
2010,08,15,00,35,20.60
2010,08,15,00,36,20.60
2010,08,15,00,37,20.70
2010,08,15,00,38,20.70
2010,08,15,00,39,20.70
2010,08,15,00,40,20.70
2010,08,15,00,41,20.80
2010,08,15,00,42,20.90
2010,08,15,00,43,20.90
2010,08,15,00,44,20.90
2010,08,15,00,45,20.80
2010,08,15,00,46,20.70
2010,08,15,00,47,20.60
2010,08,15,00,48,20.50
2010,08,15,00,49,20.40
2010,08,15,00,50,20.30
2010,08,15,00,51,20.30
2010,08,15,00,52,20.20
2010,08,15,00,53,20.20
2010,08,15,00,54,20.20
2010,08,15,00,55,20.20
2010,08,15,00,56,20.10
2010,08,15,00,57,20.00
2010,08,15,00,58,20.00
2010,08,15,00,59,19.90
2010,08,15,01,00,19.90
2010,08,15,01,01,19.90
2010,08,15,01,02,19.90
2010,08,15,01,03,19.80
2010,08,15,01,04,19.80
2010,08,15,01,05,19.80
2010,08,15,01,06,19.90
2010,08,15,01,07,19.90
2010,08,15,01,08,19.90
2010,08,15,01,09,19.90
2010,08,15,01,10,19.90
2010,08,15,01,11,19.90
2010,08,15,01,12,19.90
2010,08,15,01,13,20.00
2010,08,15,01,14,20.10
2010,08,15,01,15,20.10
2010,08,15,01,16,20.10
2010,08,15,01,17,20.10
2010,08,15,01,18,20.10
2010,08,15,01,19,20.10
2010,08,15,01,20,20.20
2010,08,15,01,21,20.20
2010,08,15,01,22,20.20
2010,08,15,01,23,20.30
2010,08,15,01,24,20.30
2010,08,15,01,25,20.30
2010,08,15,01,26,20.40
2010,08,15,01,27,20.40
2010,08,15,01,28,20.40
2010,08,15,01,29,20.40
2010,08,15,01,30,20.30
2010,08,15,01,31,20.30
2010,08,15,01,32,20.20
2010,08,15,01,33,20.10
2010,08,15,01,34,20.10
2010,08,15,01,35,20.10
2010,08,15,01,36,20.00
2010,08,15,01,37,20.00
2010,08,15,01,38,19.90
2010,08,15,01,39,19.90
2010,08,15,01,40,19.90
2010,08,15,01,41,19.80
2010,08,15,01,42,19.80
2010,08,15,01,43,19.80
2010,08,15,01,44,19.80
2010,08,15,01,45,19.80
2010,08,15,01,46,19.80
2010,08,15,01,47,19.80
2010,08,15,01,48,19.80
2010,08,15,01,49,19.70
2010,08,15,01,50,19.70
2010,08,15,01,51,19.70
2010,08,15,01,52,19.70
2010,08,15,01,53,19.60
2010,08,15,01,54,19.60
2010,08,15,01,55,19.60
2010,08,15,01,56,19.50
2010,08,15,01,57,19.40
2010,08,15,01,58,19.30
2010,08,15,01,59,19.20
2010,08,15,02,00,19.10
2010,08,15,02,01,19.10
2010,08,15,02,02,19.00
2010,08,15,02,03,18.90
2010,08,15,02,04,18.90
2010,08,15,02,05,18.80
2010,08,15,02,06,18.80
2010,08,15,02,07,18.80
2010,08,15,02,08,18.80
2010,08,15,02,09,18.80
2010,08,15,02,10,18.70
2010,08,15,02,11,18.80
2010,08,15,02,12,18.80
2010,08,15,02,13,18.80
2010,08,15,02,14,19.00
2010,08,15,02,15,19.10
2010,08,15,02,16,19.30
2010,08,15,02,17,19.30
2010,08,15,02,18,19.40
2010,08,15,02,19,19.50
2010,08,15,02,20,19.60
2010,08,15,02,21,19.60
2010,08,15,02,22,19.70
2010,08,15,02,23,19.70
2010,08,15,02,24,19.70
2010,08,15,02,25,19.70
2010,08,15,02,26,19.80
2010,08,15,02,27,19.80
2010,08,15,02,28,19.70
2010,08,15,02,29,19.70
2010,08,15,02,30,19.70
2010,08,15,02,31,19.80
2010,08,15,02,32,19.80
2010,08,15,02,33,19.80
2010,08,15,02,34,19.80
2010,08,15,02,35,19.80
2010,08,15,02,36,19.90
2010,08,15,02,37,19.90
2010,08,15,02,38,20.00
2010,08,15,02,39,20.10
2010,08,15,02,40,20.10
2010,08,15,02,41,20.10
2010,08,15,02,42,20.10
2010,08,15,02,43,20.10
2010,08,15,02,44,20.10
2010,08,15,02,45,20.10
2010,08,15,02,46,20.10
2010,08,15,02,47,20.10
2010,08,15,02,48,20.10
2010,08,15,02,49,20.10
2010,08,15,02,50,20.20
2010,08,15,02,51,20.10
2010,08,15,02,52,20.10
2010,08,15,02,53,20.10
2010,08,15,02,54,20.10
2010,08,15,02,55,20.10
2010,08,15,02,56,20.20
2010,08,15,02,57,20.20
2010,08,15,02,58,20.10
2010,08,15,02,59,20.10
2010,08,15,03,00,20.10
2010,08,15,03,01,20.10
2010,08,15,03,02,20.10
2010,08,15,03,03,20.10
2010,08,15,03,04,20.10
2010,08,15,03,05,20.10
2010,08,15,03,06,20.10
2010,08,15,03,07,20.10
2010,08,15,03,08,20.10
2010,08,15,03,09,20.10
2010,08,15,03,10,20.10
2010,08,15,03,11,20.10
2010,08,15,03,12,20.00
2010,08,15,03,13,20.00
2010,08,15,03,14,20.00
2010,08,15,03,15,20.00
2010,08,15,03,16,20.00
2010,08,15,03,17,20.10
2010,08,15,03,18,20.10
2010,08,15,03,19,20.10
2010,08,15,03,20,20.10
2010,08,15,03,21,20.10
2010,08,15,03,22,20.10
2010,08,15,03,23,20.10
2010,08,15,03,24,20.10
2010,08,15,03,25,20.10
2010,08,15,03,26,20.10
2010,08,15,03,27,20.10
2010,08,15,03,28,20.10
2010,08,15,03,29,20.10
2010,08,15,03,30,20.10
2010,08,15,03,31,20.00
2010,08,15,03,32,20.00
2010,08,15,03,33,20.00
2010,08,15,03,34,20.00
2010,08,15,03,35,19.90
2010,08,15,03,36,19.90
2010,08,15,03,37,19.90
2010,08,15,03,38,19.80
2010,08,15,03,39,19.80
2010,08,15,03,40,19.70
2010,08,15,03,41,19.70
2010,08,15,03,42,19.80
2010,08,15,03,43,19.80
2010,08,15,03,44,19.90
2010,08,15,03,45,19.90
2010,08,15,03,46,19.90
2010,08,15,03,47,19.90
2010,08,15,03,48,19.90
2010,08,15,03,49,19.80
2010,08,15,03,50,19.70
2010,08,15,03,51,19.70
2010,08,15,03,52,19.60
2010,08,15,03,53,19.60
2010,08,15,03,54,19.50
2010,08,15,03,55,19.50
2010,08,15,03,56,19.40
2010,08,15,03,57,19.30
2010,08,15,03,58,19.20
2010,08,15,03,59,19.20
2010,08,15,04,00,19.20
2010,08,15,04,01,19.20
2010,08,15,04,02,19.10
2010,08,15,04,03,19.10
2010,08,15,04,04,19.10
2010,08,15,04,05,19.10
2010,08,15,04,06,19.10
2010,08,15,04,07,19.10
2010,08,15,04,08,19.10
2010,08,15,04,09,19.10
2010,08,15,04,10,19.10
2010,08,15,04,11,19.10
2010,08,15,04,12,19.20
2010,08,15,04,13,19.20
2010,08,15,04,14,19.20
2010,08,15,04,15,19.20
2010,08,15,04,16,19.20
2010,08,15,04,17,19.20
2010,08,15,04,18,19.10
2010,08,15,04,19,19.10
2010,08,15,04,20,19.10
2010,08,15,04,21,19.10
2010,08,15,04,22,19.10
2010,08,15,04,23,19.10
2010,08,15,04,24,19.10
2010,08,15,04,25,19.10
2010,08,15,04,26,19.10
2010,08,15,04,27,19.10
2010,08,15,04,28,19.10
2010,08,15,04,29,19.10
2010,08,15,04,30,19.10
2010,08,15,04,31,19.10
2010,08,15,04,32,19.10
2010,08,15,04,33,19.00
2010,08,15,04,34,19.00
2010,08,15,04,35,18.90
2010,08,15,04,36,18.90
2010,08,15,04,37,18.90
2010,08,15,04,38,18.90
2010,08,15,04,39,19.00
2010,08,15,04,40,19.00
2010,08,15,04,41,19.10
2010,08,15,04,42,19.10
2010,08,15,04,43,19.00
2010,08,15,04,44,19.00
2010,08,15,04,45,19.00
2010,08,15,04,46,18.90
2010,08,15,04,47,18.90
2010,08,15,04,48,18.90
2010,08,15,04,49,18.90
2010,08,15,04,50,18.90
2010,08,15,04,51,18.90
2010,08,15,04,52,18.90
2010,08,15,04,53,18.90
2010,08,15,04,54,18.90
2010,08,15,04,55,18.90
2010,08,15,04,56,18.90
2010,08,15,04,57,18.90
2010,08,15,04,58,18.90
2010,08,15,04,59,18.90
2010,08,15,05,00,18.90
2010,08,15,05,01,18.80
2010,08,15,05,02,18.80
2010,08,15,05,03,18.80
2010,08,15,05,04,18.80
2010,08,15,05,05,18.80
2010,08,15,05,06,18.80
2010,08,15,05,07,18.80
2010,08,15,05,08,18.80
2010,08,15,05,09,18.80
2010,08,15,05,10,18.80
2010,08,15,05,11,18.80
2010,08,15,05,12,18.80
2010,08,15,05,13,18.80
2010,08,15,05,14,18.80
2010,08,15,05,15,18.70
2010,08,15,05,16,18.70
2010,08,15,05,17,18.70
2010,08,15,05,18,18.60
2010,08,15,05,19,18.60
2010,08,15,05,20,18.60
2010,08,15,05,21,18.60
2010,08,15,05,22,18.50
2010,08,15,05,23,18.50
2010,08,15,05,24,18.50
2010,08,15,05,25,18.50
2010,08,15,05,26,18.40
2010,08,15,05,27,18.40
2010,08,15,05,28,18.40
2010,08,15,05,29,18.30
2010,08,15,05,30,18.30
2010,08,15,05,31,18.30
2010,08,15,05,32,18.30
2010,08,15,05,33,18.30
2010,08,15,05,34,18.30
2010,08,15,05,35,18.30
2010,08,15,05,36,18.30
2010,08,15,05,37,18.20
2010,08,15,05,38,18.20
2010,08,15,05,39,18.30
2010,08,15,05,40,18.30
2010,08,15,05,41,18.30
2010,08,15,05,42,18.30
2010,08,15,05,43,18.30
2010,08,15,05,44,18.30
2010,08,15,05,45,18.30
2010,08,15,05,46,18.30
2010,08,15,05,47,18.30
2010,08,15,05,48,18.30
2010,08,15,05,49,18.30
2010,08,15,05,50,18.30
2010,08,15,05,51,18.30
2010,08,15,05,52,18.40
2010,08,15,05,53,18.40
2010,08,15,05,54,18.30
2010,08,15,05,55,18.30
2010,08,15,05,56,18.30
2010,08,15,05,57,18.30
2010,08,15,05,58,18.30
2010,08,15,05,59,18.30
2010,08,15,06,00,18.30
2010,08,15,06,01,18.30
2010,08,15,06,02,18.30
2010,08,15,06,03,18.30
2010,08,15,06,04,18.20
2010,08,15,06,05,18.20
2010,08,15,06,06,18.20
2010,08,15,06,07,18.10
2010,08,15,06,08,18.10
2010,08,15,06,09,18.10
2010,08,15,06,10,18.10
2010,08,15,06,11,18.00
2010,08,15,06,12,18.00
2010,08,15,06,13,18.00
2010,08,15,06,14,18.00
2010,08,15,06,15,17.90
2010,08,15,06,16,17.90
2010,08,15,06,17,17.90
2010,08,15,06,18,17.90
2010,08,15,06,19,17.90
2010,08,15,06,20,17.90
2010,08,15,06,21,17.90
2010,08,15,06,22,17.90
2010,08,15,06,23,17.90
2010,08,15,06,24,17.90
2010,08,15,06,25,17.90
2010,08,15,06,26,17.90
2010,08,15,06,27,17.90
2010,08,15,06,28,17.90
2010,08,15,06,29,17.80
2010,08,15,06,30,17.80
2010,08,15,06,31,17.80
2010,08,15,06,32,17.80
2010,08,15,06,33,17.80
2010,08,15,06,34,17.80
2010,08,15,06,35,17.80
2010,08,15,06,36,17.80
2010,08,15,06,37,17.80
2010,08,15,06,38,17.80
2010,08,15,06,39,17.80
2010,08,15,06,40,17.80
2010,08,15,06,41,17.80
2010,08,15,06,42,17.80
2010,08,15,06,43,17.80
2010,08,15,06,44,17.90
2010,08,15,06,45,17.90
2010,08,15,06,46,17.90
2010,08,15,06,47,17.90
2010,08,15,06,48,17.90
2010,08,15,06,49,17.90
2010,08,15,06,50,17.90
2010,08,15,06,51,18.00
2010,08,15,06,52,18.00
2010,08,15,06,53,18.00
2010,08,15,06,54,18.00
2010,08,15,06,55,18.00
2010,08,15,06,56,18.00
2010,08,15,06,57,18.00
2010,08,15,06,58,18.10
2010,08,15,06,59,18.10
2010,08,15,07,00,18.10
2010,08,15,07,01,18.10
2010,08,15,07,02,18.10
2010,08,15,07,03,18.10
2010,08,15,07,04,18.10
2010,08,15,07,05,18.10
2010,08,15,07,06,18.10
2010,08,15,07,07,18.20
2010,08,15,07,08,18.20
2010,08,15,07,09,18.20
2010,08,15,07,10,18.20
2010,08,15,07,11,18.20
2010,08,15,07,12,18.30
2010,08,15,07,13,18.30
2010,08,15,07,14,18.30
2010,08,15,07,15,18.30
2010,08,15,07,16,18.30
2010,08,15,07,17,18.40
2010,08,15,07,18,18.40
2010,08,15,07,19,18.40
2010,08,15,07,20,18.40
2010,08,15,07,21,18.50
2010,08,15,07,22,18.50
2010,08,15,07,23,18.60
2010,08,15,07,24,18.60
2010,08,15,07,25,18.70
2010,08,15,07,26,18.70
2010,08,15,07,27,18.70
2010,08,15,07,28,18.80
2010,08,15,07,29,18.80
2010,08,15,07,30,18.80
2010,08,15,07,31,18.90
2010,08,15,07,32,18.90
2010,08,15,07,33,18.90
2010,08,15,07,34,18.90
2010,08,15,07,35,19.00
2010,08,15,07,36,19.00
2010,08,15,07,37,19.10
2010,08,15,07,38,19.10
2010,08,15,07,39,19.10
2010,08,15,07,40,19.20
2010,08,15,07,41,19.20
2010,08,15,07,42,19.20
2010,08,15,07,43,19.30
2010,08,15,07,44,19.30
2010,08,15,07,45,19.30
2010,08,15,07,46,19.40
2010,08,15,07,47,19.40
2010,08,15,07,48,19.40
2010,08,15,07,49,19.50
2010,08,15,07,50,19.50
2010,08,15,07,51,19.60
2010,08,15,07,52,19.60
2010,08,15,07,53,19.60
2010,08,15,07,54,19.70
2010,08,15,07,55,19.70
2010,08,15,07,56,19.70
2010,08,15,07,57,19.80
2010,08,15,07,58,19.80
2010,08,15,07,59,19.90
2010,08,15,08,00,19.90
2010,08,15,08,01,19.90
2010,08,15,08,02,20.00
2010,08,15,08,03,20.10
2010,08,15,08,04,20.10
2010,08,15,08,05,20.20
2010,08,15,08,06,20.20
2010,08,15,08,07,20.30
2010,08,15,08,08,20.30
2010,08,15,08,09,20.40
2010,08,15,08,10,20.40
2010,08,15,08,11,20.50
2010,08,15,08,12,20.60
2010,08,15,08,13,20.60
2010,08,15,08,14,20.70
2010,08,15,08,15,20.80
2010,08,15,08,16,20.80
2010,08,15,08,17,20.90
2010,08,15,08,18,21.00
2010,08,15,08,19,21.10
2010,08,15,08,20,21.10
2010,08,15,08,21,21.20
2010,08,15,08,22,21.30
2010,08,15,08,23,21.30
2010,08,15,08,24,21.40
2010,08,15,08,25,21.50
2010,08,15,08,26,21.60
2010,08,15,08,27,21.60
2010,08,15,08,28,21.70
2010,08,15,08,29,21.80
2010,08,15,08,30,21.90
2010,08,15,08,31,21.90
2010,08,15,08,32,22.00
2010,08,15,08,33,22.10
2010,08,15,08,34,22.20
2010,08,15,08,35,22.20
2010,08,15,08,36,22.30
2010,08,15,08,37,22.40
2010,08,15,08,38,22.40
2010,08,15,08,39,22.50
2010,08,15,08,40,22.60
2010,08,15,08,41,22.70
2010,08,15,08,42,22.80
2010,08,15,08,43,22.90
2010,08,15,08,44,23.00
2010,08,15,08,45,23.10
2010,08,15,08,46,23.10
2010,08,15,08,47,23.20
2010,08,15,08,48,23.30
2010,08,15,08,49,23.40
2010,08,15,08,50,23.50
2010,08,15,08,51,23.60
2010,08,15,08,52,23.70
2010,08,15,08,53,23.90
2010,08,15,08,54,24.00
2010,08,15,08,55,24.10
2010,08,15,08,56,24.20
2010,08,15,08,57,24.30
2010,08,15,08,58,24.30
2010,08,15,08,59,24.40
2010,08,15,09,00,24.50
2010,08,15,09,01,24.50
2010,08,15,09,02,24.50
2010,08,15,09,03,24.50
2010,08,15,09,04,24.60
2010,08,15,09,05,24.60
2010,08,15,09,06,24.60
2010,08,15,09,07,24.60
2010,08,15,09,08,24.70
2010,08,15,09,09,24.70
2010,08,15,09,10,24.80
2010,08,15,09,11,24.80
2010,08,15,09,12,24.80
2010,08,15,09,13,24.80
2010,08,15,09,14,24.80
2010,08,15,09,15,24.90
2010,08,15,09,16,24.90
2010,08,15,09,17,24.90
2010,08,15,09,18,24.80
2010,08,15,09,19,24.80
2010,08,15,09,20,24.80
2010,08,15,09,21,24.80
2010,08,15,09,22,24.80
2010,08,15,09,23,24.80
2010,08,15,09,24,24.80
2010,08,15,09,25,24.80
2010,08,15,09,26,24.80
2010,08,15,09,27,24.80
2010,08,15,09,28,24.80
2010,08,15,09,29,24.80
2010,08,15,09,30,24.80
2010,08,15,09,31,24.80
2010,08,15,09,32,24.80
2010,08,15,09,33,24.90
2010,08,15,09,34,24.90
2010,08,15,09,35,24.90
2010,08,15,09,36,25.00
2010,08,15,09,37,25.00
2010,08,15,09,38,25.00
2010,08,15,09,39,25.00
2010,08,15,09,40,25.00
2010,08,15,09,41,25.00
2010,08,15,09,42,25.00
2010,08,15,09,43,25.00
2010,08,15,09,44,25.00
2010,08,15,09,45,25.00
2010,08,15,09,46,25.10
2010,08,15,09,47,25.10
2010,08,15,09,48,25.10
2010,08,15,09,49,25.20
2010,08,15,09,50,25.20
2010,08,15,09,51,25.20
2010,08,15,09,52,25.30
2010,08,15,09,53,25.30
2010,08,15,09,54,25.30
2010,08,15,09,55,25.30
2010,08,15,09,56,25.30
2010,08,15,09,57,25.30
2010,08,15,09,58,25.30
2010,08,15,09,59,25.30
2010,08,15,10,00,25.40
2010,08,15,10,01,25.40
2010,08,15,10,02,25.40
2010,08,15,10,03,25.40
2010,08,15,10,04,25.40
2010,08,15,10,05,25.40
2010,08,15,10,06,25.40
2010,08,15,10,07,25.40
2010,08,15,10,08,25.40
2010,08,15,10,09,25.40
2010,08,15,10,10,25.50
2010,08,15,10,11,25.50
2010,08,15,10,12,25.60
2010,08,15,10,13,25.60
2010,08,15,10,14,25.60
2010,08,15,10,15,25.60
2010,08,15,10,16,25.60
2010,08,15,10,17,25.50
2010,08,15,10,18,25.50
2010,08,15,10,19,25.40
2010,08,15,10,20,25.40
2010,08,15,10,21,25.40
2010,08,15,10,22,25.40
2010,08,15,10,23,25.40
2010,08,15,10,24,25.40
2010,08,15,10,25,25.30
2010,08,15,10,26,25.30
2010,08,15,10,27,25.30
2010,08,15,10,28,25.30
2010,08,15,10,29,25.30
2010,08,15,10,30,25.30
2010,08,15,10,31,25.30
2010,08,15,10,32,25.40
2010,08,15,10,33,25.40
2010,08,15,10,34,25.50
2010,08,15,10,35,25.40
2010,08,15,10,36,25.40
2010,08,15,10,37,25.40
2010,08,15,10,38,25.30
2010,08,15,10,39,25.30
2010,08,15,10,40,25.30
2010,08,15,10,41,25.30
2010,08,15,10,42,25.30
2010,08,15,10,43,25.30
2010,08,15,10,44,25.40
2010,08,15,10,45,25.40
2010,08,15,10,46,25.50
2010,08,15,10,47,25.60
2010,08,15,10,48,25.50
2010,08,15,10,49,25.50
2010,08,15,10,50,25.50
2010,08,15,10,51,25.60
2010,08,15,10,52,25.60
2010,08,15,10,53,25.70
2010,08,15,10,54,25.70
2010,08,15,10,55,25.70
2010,08,15,10,56,25.70
2010,08,15,10,57,25.70
2010,08,15,10,58,25.70
2010,08,15,10,59,25.70
2010,08,15,11,00,25.70
2010,08,15,11,01,25.70
2010,08,15,11,02,25.70
2010,08,15,11,03,25.80
2010,08,15,11,04,25.80
2010,08,15,11,05,25.90
2010,08,15,11,06,26.00
2010,08,15,11,07,26.00
2010,08,15,11,08,26.10
2010,08,15,11,09,26.10
2010,08,15,11,10,26.10
2010,08,15,11,11,26.00
2010,08,15,11,12,26.00
2010,08,15,11,13,26.00
2010,08,15,11,14,26.00
2010,08,15,11,15,26.10
2010,08,15,11,16,26.10
2010,08,15,11,17,26.10
2010,08,15,11,18,26.20
2010,08,15,11,19,26.20
2010,08,15,11,20,26.30
2010,08,15,11,21,26.30
2010,08,15,11,22,26.30
2010,08,15,11,23,26.40
2010,08,15,11,24,26.40
2010,08,15,11,25,26.40
2010,08,15,11,26,26.40
2010,08,15,11,27,26.40
2010,08,15,11,28,26.50
2010,08,15,11,29,26.60
2010,08,15,11,30,26.60
2010,08,15,11,31,26.60
2010,08,15,11,32,26.60
2010,08,15,11,33,26.60
2010,08,15,11,34,26.60
2010,08,15,11,35,26.50
2010,08,15,11,36,26.50
2010,08,15,11,37,26.40
2010,08,15,11,38,26.40
2010,08,15,11,39,26.30
2010,08,15,11,40,26.30
2010,08,15,11,41,26.30
2010,08,15,11,42,26.30
2010,08,15,11,43,26.30
2010,08,15,11,44,26.30
2010,08,15,11,45,26.30
2010,08,15,11,46,26.40
2010,08,15,11,47,26.50
2010,08,15,11,48,26.60
2010,08,15,11,49,26.60
2010,08,15,11,50,26.70
2010,08,15,11,51,26.70
2010,08,15,11,52,26.70
2010,08,15,11,53,26.70
2010,08,15,11,54,26.60
2010,08,15,11,55,26.60
2010,08,15,11,56,26.60
2010,08,15,11,57,26.60
2010,08,15,11,58,26.60
2010,08,15,11,59,26.60
2010,08,15,12,00,26.60
2010,08,15,12,01,26.60
2010,08,15,12,02,26.60
2010,08,15,12,03,26.60
2010,08,15,12,04,26.60
2010,08,15,12,05,26.60
2010,08,15,12,06,26.70
2010,08,15,12,07,26.70
2010,08,15,12,08,26.70
2010,08,15,12,09,26.80
2010,08,15,12,10,26.90
2010,08,15,12,11,26.90
2010,08,15,12,12,27.00
2010,08,15,12,13,27.10
2010,08,15,12,14,27.20
2010,08,15,12,15,27.30
2010,08,15,12,16,27.30
2010,08,15,12,17,27.40
2010,08,15,12,18,27.40
2010,08,15,12,19,27.40
2010,08,15,12,20,27.40
2010,08,15,12,21,27.30
2010,08,15,12,22,27.30
2010,08,15,12,23,27.30
2010,08,15,12,24,27.30
2010,08,15,12,25,27.40
2010,08,15,12,26,27.50
2010,08,15,12,27,27.60
2010,08,15,12,28,27.70
2010,08,15,12,29,27.60
2010,08,15,12,30,27.50
2010,08,15,12,31,27.50
2010,08,15,12,32,27.40
2010,08,15,12,33,27.40
2010,08,15,12,34,27.40
2010,08,15,12,35,27.50
2010,08,15,12,36,27.60
2010,08,15,12,37,27.60
2010,08,15,12,38,27.60
2010,08,15,12,39,27.70
2010,08,15,12,40,27.70
2010,08,15,12,41,27.80
2010,08,15,12,42,27.80
2010,08,15,12,43,27.80
2010,08,15,12,44,27.80
2010,08,15,12,45,27.70
2010,08,15,12,46,27.70
2010,08,15,12,47,27.60
2010,08,15,12,48,27.60
2010,08,15,12,49,27.50
2010,08,15,12,50,27.40
2010,08,15,12,51,27.40
2010,08,15,12,52,27.40
2010,08,15,12,53,27.40
2010,08,15,12,54,27.40
2010,08,15,12,55,27.40
2010,08,15,12,56,27.40
2010,08,15,12,57,27.40
2010,08,15,12,58,27.40
2010,08,15,12,59,27.40
2010,08,15,13,00,27.50
2010,08,15,13,01,27.60
2010,08,15,13,02,27.60
2010,08,15,13,03,27.70
2010,08,15,13,04,27.80
2010,08,15,13,05,27.90
2010,08,15,13,06,27.90
2010,08,15,13,07,27.90
2010,08,15,13,08,27.90
2010,08,15,13,09,27.90
2010,08,15,13,10,27.90
2010,08,15,13,11,27.90
2010,08,15,13,12,27.90
2010,08,15,13,13,28.00
2010,08,15,13,14,28.00
2010,08,15,13,15,28.00
2010,08,15,13,16,28.00
2010,08,15,13,17,28.10
2010,08,15,13,18,28.10
2010,08,15,13,19,28.00
2010,08,15,13,20,27.90
2010,08,15,13,21,27.80
2010,08,15,13,22,27.60
2010,08,15,13,23,27.50
2010,08,15,13,24,27.40
2010,08,15,13,25,27.30
2010,08,15,13,26,27.20
2010,08,15,13,27,27.10
2010,08,15,13,28,27.00
2010,08,15,13,29,27.00
2010,08,15,13,30,26.90
2010,08,15,13,31,26.90
2010,08,15,13,32,26.90
2010,08,15,13,33,27.00
2010,08,15,13,34,27.10
2010,08,15,13,35,27.10
2010,08,15,13,36,27.20
2010,08,15,13,37,27.30
2010,08,15,13,38,27.40
2010,08,15,13,39,27.50
2010,08,15,13,40,27.60
2010,08,15,13,41,27.70
2010,08,15,13,42,27.70
2010,08,15,13,43,27.80
2010,08,15,13,44,27.90
2010,08,15,13,45,28.00
2010,08,15,13,46,28.10
2010,08,15,13,47,28.10
2010,08,15,13,48,28.20
2010,08,15,13,49,28.20
2010,08,15,13,50,28.20
2010,08,15,13,51,28.30
2010,08,15,13,52,28.30
2010,08,15,13,53,28.30
2010,08,15,13,54,28.30
2010,08,15,13,55,28.30
2010,08,15,13,56,28.30
2010,08,15,13,57,28.30
2010,08,15,13,58,28.30
2010,08,15,13,59,28.40
2010,08,15,14,00,28.50
2010,08,15,14,01,28.60
2010,08,15,14,02,28.70
2010,08,15,14,03,28.80
2010,08,15,14,04,28.90
2010,08,15,14,05,29.10
2010,08,15,14,06,29.20
2010,08,15,14,07,29.30
2010,08,15,14,08,29.40
2010,08,15,14,09,29.40
2010,08,15,14,10,29.40
2010,08,15,14,11,29.40
2010,08,15,14,12,29.40
2010,08,15,14,13,29.50
2010,08,15,14,14,29.50
2010,08,15,14,15,29.60
2010,08,15,14,16,29.60
2010,08,15,14,17,29.50
2010,08,15,14,18,29.40
2010,08,15,14,19,29.40
2010,08,15,14,20,29.40
2010,08,15,14,21,29.40
2010,08,15,14,22,29.60
2010,08,15,14,23,29.70
2010,08,15,14,24,29.70
2010,08,15,14,25,29.70
2010,08,15,14,26,29.70
2010,08,15,14,27,29.70
2010,08,15,14,28,29.80
2010,08,15,14,29,29.80
2010,08,15,14,30,29.90
2010,08,15,14,31,30.00
2010,08,15,14,32,30.10
2010,08,15,14,33,30.20
2010,08,15,14,34,30.10
2010,08,15,14,35,30.00
2010,08,15,14,36,29.90
2010,08,15,14,37,29.70
2010,08,15,14,38,29.60
2010,08,15,14,39,29.60
2010,08,15,14,40,29.60
2010,08,15,14,41,29.60
2010,08,15,14,42,29.70
2010,08,15,14,43,29.70
2010,08,15,14,44,29.80
2010,08,15,14,45,29.90
2010,08,15,14,46,29.90
2010,08,15,14,47,29.90
2010,08,15,14,48,29.90
2010,08,15,14,49,29.90
2010,08,15,14,50,30.00
2010,08,15,14,51,30.10
2010,08,15,14,52,30.00
2010,08,15,14,53,30.00
2010,08,15,14,54,29.90
2010,08,15,14,55,29.90
2010,08,15,14,56,29.90
2010,08,15,14,57,29.90
2010,08,15,14,58,29.90
2010,08,15,14,59,29.90
2010,08,15,15,00,30.00
2010,08,15,15,01,30.00
2010,08,15,15,02,30.00
2010,08,15,15,03,30.10
2010,08,15,15,04,30.10
2010,08,15,15,05,30.20
2010,08,15,15,06,30.20
2010,08,15,15,07,30.20
2010,08,15,15,08,30.20
2010,08,15,15,09,30.20
2010,08,15,15,10,30.30
2010,08,15,15,11,30.30
2010,08,15,15,12,30.30
2010,08,15,15,13,30.30
2010,08,15,15,14,30.30
2010,08,15,15,15,30.30
2010,08,15,15,16,30.30
2010,08,15,15,17,30.40
2010,08,15,15,18,30.40
2010,08,15,15,19,30.40
2010,08,15,15,20,30.40
2010,08,15,15,21,30.40
2010,08,15,15,22,30.50
2010,08,15,15,23,30.60
2010,08,15,15,24,30.70
2010,08,15,15,25,30.80
2010,08,15,15,26,30.80
2010,08,15,15,27,30.80
2010,08,15,15,28,30.80
2010,08,15,15,29,30.80
2010,08,15,15,30,30.80
2010,08,15,15,31,30.80
2010,08,15,15,32,30.90
2010,08,15,15,33,30.90
2010,08,15,15,34,30.90
2010,08,15,15,35,31.00
2010,08,15,15,36,31.00
2010,08,15,15,37,31.10
2010,08,15,15,38,31.20
2010,08,15,15,39,31.30
2010,08,15,15,40,31.30
2010,08,15,15,41,31.30
2010,08,15,15,42,31.30
2010,08,15,15,43,31.30
2010,08,15,15,44,31.30
2010,08,15,15,45,31.20
2010,08,15,15,46,31.10
2010,08,15,15,47,31.00
2010,08,15,15,48,31.00
2010,08,15,15,49,30.90
2010,08,15,15,50,30.80
2010,08,15,15,51,30.70
2010,08,15,15,52,30.70
2010,08,15,15,53,30.60
2010,08,15,15,54,30.60
2010,08,15,15,55,30.60
2010,08,15,15,56,30.60
2010,08,15,15,57,30.60
2010,08,15,15,58,30.60
2010,08,15,15,59,30.50
2010,08,15,16,00,30.50
2010,08,15,16,01,30.40
2010,08,15,16,02,30.40
2010,08,15,16,03,30.40
2010,08,15,16,04,30.50
2010,08,15,16,05,30.50
2010,08,15,16,06,30.60
2010,08,15,16,07,30.70
2010,08,15,16,08,30.80
2010,08,15,16,09,31.00
2010,08,15,16,10,31.00
2010,08,15,16,11,31.10
2010,08,15,16,12,31.10
2010,08,15,16,13,31.20
2010,08,15,16,14,31.20
2010,08,15,16,15,31.30
2010,08,15,16,16,31.40
2010,08,15,16,17,31.40
2010,08,15,16,18,31.60
2010,08,15,16,19,31.60
2010,08,15,16,20,31.60
2010,08,15,16,21,31.60
2010,08,15,16,22,31.70
2010,08,15,16,23,31.70
2010,08,15,16,24,31.70
2010,08,15,16,25,31.70
2010,08,15,16,26,31.70
2010,08,15,16,27,31.70
2010,08,15,16,28,31.80
2010,08,15,16,29,31.90
2010,08,15,16,30,31.90
2010,08,15,16,31,32.10
2010,08,15,16,32,32.20
2010,08,15,16,33,32.30
2010,08,15,16,34,32.30
2010,08,15,16,35,32.30
2010,08,15,16,36,32.30
2010,08,15,16,37,32.30
2010,08,15,16,38,32.30
2010,08,15,16,39,32.30
2010,08,15,16,40,32.20
2010,08,15,16,41,32.20
2010,08,15,16,42,32.00
2010,08,15,16,43,31.90
2010,08,15,16,44,31.90
2010,08,15,16,45,31.80
2010,08,15,16,46,31.70
2010,08,15,16,47,31.60
2010,08,15,16,48,31.50
2010,08,15,16,49,31.50
2010,08,15,16,50,31.40
2010,08,15,16,51,31.30
2010,08,15,16,52,31.30
2010,08,15,16,53,31.40
2010,08,15,16,54,31.40
2010,08,15,16,55,31.40
2010,08,15,16,56,31.40
2010,08,15,16,57,31.50
2010,08,15,16,58,31.50
2010,08,15,16,59,31.50
2010,08,15,17,00,31.60
2010,08,15,17,01,31.60
2010,08,15,17,02,31.60
2010,08,15,17,03,31.50
2010,08,15,17,04,31.40
2010,08,15,17,05,31.40
2010,08,15,17,06,31.30
2010,08,15,17,07,31.30
2010,08,15,17,08,31.30
2010,08,15,17,09,31.30
2010,08,15,17,10,31.30
2010,08,15,17,11,31.30
2010,08,15,17,12,31.40
2010,08,15,17,13,31.50
2010,08,15,17,14,31.60
2010,08,15,17,15,31.60
2010,08,15,17,16,31.70
2010,08,15,17,17,31.70
2010,08,15,17,18,31.80
2010,08,15,17,19,31.80
2010,08,15,17,20,31.80
2010,08,15,17,21,31.80
2010,08,15,17,22,31.80
2010,08,15,17,23,31.80